Home   Weather   Galway   Past weeks

Flag for Ireland Past Weather in Galway, Ireland — Yesterday and Last 2 Weeks

Now
45 °F

Passing clouds.


Feels Like: 40 °F
Forecast: N/A
Wind: 8 mph from South

Location: Shannon Airport

Current Time: Feb 25, 2017 at 11:07:28 pm

Latest Report: Feb 25, 2017 at 10:30 pm


Visibility: N/A

Pressure: 29.62 "Hg

Humidity: 87%

Dew Point: 41 °F

Location of GalwayLocation

Past Weather in Galway — Graph

°F

Galway Temperature Yesterday

Maximum temperature yesterday: 50 °F (at 11:30 pm)
Minimum temperature yesterday: 39 °F (at 12:30 am)
Average temperature yesterday: 45 °F

High & Low Weather Summary for the Past Weeks

 TemperatureHumidityPressure
High55 °F (Feb 14, 2:00 pm)100% (Feb 16, 9:00 am)30.51 "Hg (Feb 16, 9:00 am)
Low28 °F (Feb 11, 8:30 am)49% (Feb 11, 2:30 pm)29.27 "Hg (Feb 23, 1:30 am)
Average47 °F86%30.03 "Hg
* Reported Feb 10 9:00 pm — Feb 25 9:30 pm, Galway, Weather by CustomWeather, © 2017

Note: Actual official high and low records may vary slightly from our data, if they occured in-between our weather recording intervals... More about our weather records

Advertising

Galway Weather History for the Previous 24 Hours

Scroll right to see more
 ConditionsComfort  
Time TempWeatherWind HumidityBarometerVisibility
9:30 pm
Sat, Feb 25
46 °FSprinkles. Partly cloudy.17 mph87%29.65 "HgN/A
9:00 pm48 °FPassing clouds.13 mph71%29.65 "HgN/A
8:30 pm46 °FPassing clouds.8 mph82%29.65 "HgN/A
8:00 pm46 °FPartly cloudy.8 mph82%29.65 "HgN/A
7:30 pm46 °FPassing clouds.12 mph87%29.65 "HgN/A
7:00 pm46 °FPassing clouds.8 mph87%29.62 "HgN/A
6:30 pm46 °FPassing clouds.12 mph93%29.62 "HgN/A
6:00 pm46 °FBroken clouds.8 mph87%29.62 "HgN/A
5:30 pm48 °FBroken clouds.9 mph82%29.62 "HgN/A
5:00 pm48 °FBroken clouds.8 mph87%29.62 "HgN/A
4:30 pm48 °FBroken clouds.10 mph87%29.62 "HgN/A
4:00 pm50 °FDrizzle. Mostly cloudy.12 mph88%29.59 "Hg2 mi
3:30 pm50 °FDrizzle. Partly sunny.14 mph88%29.59 "Hg5 mi
3:00 pm52 °FBroken clouds.10 mph82%29.59 "HgN/A
2:30 pm52 °FBroken clouds.10 mph82%29.59 "HgN/A
2:00 pm52 °FPartly sunny.12 mph82%29.59 "HgN/A
1:30 pm52 °FLight rain. Broken clouds.13 mph88%29.59 "HgN/A
1:00 pm52 °FBroken clouds.13 mph88%29.59 "HgN/A
12:30 pm52 °FBroken clouds.12 mph88%29.59 "HgN/A
12:00 pm52 °FBroken clouds.12 mph94%29.59 "HgN/A
11:30 am52 °FLight rain. Broken clouds.14 mph94%29.59 "HgN/A
11:00 am52 °FPartly sunny.18 mph94%29.59 "Hg4 mi
10:30 am52 °FDrizzle. Mostly cloudy.15 mph94%29.56 "Hg2 mi
10:00 am52 °FDrizzle. Partly sunny.16 mph94%29.56 "Hg2 mi
9:30 am52 °FLow clouds.12 mph94%29.56 "HgN/A
9:00 am52 °FDrizzle. Partly sunny.14 mph94%29.56 "HgN/A
8:30 am52 °FDrizzle. Partly sunny.13 mph94%29.56 "Hg2 mi
8:00 am50 °FDrizzle. Low clouds.16 mph94%29.56 "Hg4 mi
7:30 am50 °FDrizzle. Low clouds.17 mph94%29.56 "Hg6 mi
7:00 am50 °FPassing clouds.15 mph94%29.56 "HgN/A
6:30 am50 °FPassing clouds.15 mph94%29.56 "HgN/A
6:00 am50 °FLight rain. Passing clouds.18 mph88%29.56 "Hg5 mi
5:30 am52 °FLight rain. Passing clouds.17 mph82%29.59 "Hg5 mi
5:00 am50 °FPassing clouds.17 mph88%29.59 "HgN/A
4:30 am50 °FPassing clouds.18 mph82%29.59 "HgN/A
4:00 am50 °FPassing clouds.21 mph82%29.62 "HgN/A
3:30 am50 °FPassing clouds.22 mph82%29.62 "HgN/A
3:00 am50 °FPassing clouds.15 mph82%29.65 "HgN/A
2:30 am50 °FPassing clouds.17 mph82%29.65 "HgN/A
2:00 am50 °FPartly cloudy.21 mph82%29.68 "HgN/A
1:30 am50 °FPassing clouds.13 mph82%29.71 "HgN/A
1:00 am50 °FPassing clouds.16 mph76%29.74 "HgN/A
12:30 am50 °FPassing clouds.16 mph76%29.77 "HgN/A
12:00 am50 °FPassing clouds.15 mph76%29.77 "HgN/A
11:30 pm
Fri, Feb 24
50 °FPassing clouds.15 mph76%29.77 "HgN/A
11:00 pm48 °FPassing clouds.10 mph82%29.77 "HgN/A
Weather by CustomWeather, © 2017

See weather overviewHow to use our weather pages